Theta_e
317 315 314 318 319 321 323 324 330 330 327 322 319 323 319 320 322 319 321 322 322 319 318 320 320 322 322 326 328 328 326 328 332 330 334 336 338 340 340 340 338 334 331 330 331 332 333 333 334 334 333 332 331 331 331 332 332 332 332 332 332 331 331 328 326 326 326 325 324 324 323 322 321 319 318 316 313 310 310 313 320 327 328 328 328 327 320 313 309 308 309 309 309 310 309 310 313
316 314 315 319 319 322 324 325 330 328 326 321 317 321 318 322 325 321 323 322 321 319 319 320 319 322 322 325 326 329 331 327 328 333 337 337 339 340 340 339 337 335 331 330 329 330 332 332 332 333 333 333 332 331 331 331 331 331 332 331 331 331 330 328 325 326 326 325 324 324 324 323 322 320 319 318 315 311 313 318 324 327 327 328 328 325 316 309 308 308 309 309 309 309 310 312 315
314 315 317 320 322 323 325 327 327 326 325 319 314 318 320 323 324 321 322 320 320 319 319 320 319 321 320 324 327 331 334 328 326 334 338 337 339 340 339 339 337 335 332 331 329 329 331 331 332 332 332 333 332 332 331 331 331 331 331 331 330 330 329 327 325 325 325 325 325 324 324 323 321 320 319 318 317 314 316 323 325 326 327 328 328 326 317 309 308 308 308 309 309 310 311 313 316
314 316 320 322 326 326 328 328 330 329 321 318 315 317 322 322 322 320 320 319 320 320 321 320 320 320 321 326 328 330 331 330 329 331 336 338 338 339 339 338 336 335 333 331 329 329 329 331 331 331 331 331 331 330 330 330 330 331 331 331 330 330 329 326 323 323 324 324 325 325 325 323 320 320 319 318 317 315 318 325 327 327 328 329 329 327 317 308 308 308 308 308 309 310 312 316 319
314 318 321 322 327 326 328 327 330 329 318 322 320 317 322 321 321 319 318 320 320 320 321 320 319 319 322 325 327 329 329 329 330 329 333 337 337 337 339 338 335 335 334 331 331 330 328 329 330 330 329 328 328 328 328 328 329 330 330 331 330 330 328 324 322 321 323 324 324 325 324 322 320 320 319 317 316 315 317 324 328 328 328 329 330 324 312 307 308 307 308 308 308 310 313 318 320
315 319 321 321 325 323 329 326 321 322 316 323 321 317 322 319 319 318 318 320 319 320 320 320 319 320 324 326 328 329 329 328 328 329 331 335 336 336 339 338 335 335 333 332 331 332 329 328 329 329 328 326 325 326 327 327 328 328 328 329 330 330 327 323 320 319 321 323 324 324 324 322 320 320 319 317 314 313 313 319 326 328 329 329 328 320 309 307 308 307 307 307 309 311 314 318 320
317 322 322 323 325 323 332 326 318 321 317 319 319 318 320 317 318 318 318 319 319 319 318 319 319 320 322 325 327 328 330 328 324 326 328 333 336 336 338 337 337 336 333 334 333 333 331 328 329 328 328 326 325 326 327 327 328 327 326 328 330 328 325 322 319 318 321 324 325 325 324 322 320 320 319 316 313 312 310 312 319 324 326 324 320 314 307 307 307 306 307 310 313 315 316 317 318
320 323 322 325 329 327 330 324 320 324 319 317 317 319 318 317 318 317 318 319 319 318 317 318 319 320 320 323 326 328 330 328 323 324 326 331 334 335 335 336 337 336 335 336 336 334 332 330 330 328 327 327 326 325 326 326 327 326 326 327 328 327 325 323 320 319 321 325 326 326 325 322 321 321 320 316 311 310 309 308 310 315 316 313 310 308 307 307 306 307 311 314 315 317 318 319 319
321 323 323 323 328 329 325 320 319 320 319 319 318 318 318 318 318 317 317 317 318 317 317 317 318 319 320 324 324 327 328 326 325 323 325 328 331 333 335 337 336 335 336 338 337 335 333 330 330 329 327 327 326 325 325 325 324 325 325 326 326 327 328 325 320 319 322 325 327 327 325 322 321 322 321 317 313 309 307 307 307 308 308 307 307 307 307 306 308 312 315 316 317 318 320 321 321
322 322 322 326 328 326 322 318 319 319 318 318 318 319 318 319 318 318 317 317 318 317 318 317 318 319 321 325 324 325 322 321 322 320 325 327 330 333 334 337 335 334 335 337 337 336 335 332 330 329 327 327 327 326 326 324 322 323 324 325 325 326 328 326 321 320 322 325 327 327 325 322 321 321 321 319 316 313 309 306 306 306 306 306 307 306 306 308 313 317 317 317 316 317 318 321 322
322 320 321 329 329 322 321 320 319 318 317 317 317 319 318 319 318 316 317 317 318 318 318 316 318 319 321 324 324 323 318 317 318 316 321 326 330 333 334 336 334 334 335 335 337 336 336 334 331 328 327 327 327 327 326 324 322 323 323 325 326 324 327 326 323 320 321 324 327 327 326 323 321 320 321 321 318 317 314 309 306 305 305 306 306 305 308 313 318 319 318 317 315 315 316 319 321
323 324 324 326 326 320 321 322 319 318 318 319 318 317 318 318 318 316 316 316 318 317 316 317 317 318 320 322 324 322 318 316 317 315 317 323 330 333 334 336 334 335 336 336 337 336 335 335 332 329 327 328 327 328 327 324 322 323 323 324 326 325 327 326 323 322 319 322 324 325 326 324 323 320 320 321 320 319 319 315 311 308 306 306 305 308 313 317 319 319 318 316 315 314 314 316 319
323 325 326 325 329 325 321 322 320 320 318 319 318 317 318 317 318 316 316 316 317 317 316 318 318 318 320 321 324 323 319 315 316 316 315 319 328 333 335 336 334 335 336 336 336 335 335 335 333 330 330 330 328 329 328 324 322 324 323 324 326 325 327 325 323 323 319 321 322 323 326 325 324 322 319 320 321 320 320 320 317 312 309 307 309 313 318 319 320 320 319 317 316 315 314 314 315
321 323 327 327 331 326 325 323 320 323 318 318 318 317 318 316 317 316 316 317 316 317 317 318 317 319 320 321 323 323 321 318 316 316 316 317 325 333 335 336 335 334 336 337 336 336 336 335 334 332 331 331 330 330 329 326 324 324 323 323 325 326 327 325 323 323 321 322 323 323 325 325 324 322 319 319 321 321 320 321 320 316 312 310 313 318 319 320 320 320 320 318 317 316 315 313 313
320 321 326 327 328 323 326 325 322 326 318 317 318 316 318 316 317 316 316 318 317 317 316 317 316 317 319 321 322 320 320 319 317 316 315 315 321 329 332 335 335 332 334 335 336 336 336 335 335 334 333 333 332 332 331 328 326 325 325 323 325 325 326 326 324 323 323 323 323 323 324 324 323 321 320 318 320 321 321 321 321 318 315 314 317 320 321 321 320 320 320 319 317 316 314 313 312
319 321 327 325 325 323 322 323 323 324 317 316 318 316 317 316 316 316 316 318 317 317 316 316 315 317 318 320 319 316 317 318 318 315 314 315 317 322 327 333 333 331 332 332 334 335 335 336 335 334 334 333 333 333 332 331 329 326 326 324 324 325 325 326 326 324 323 323 323 323 323 323 323 321 320 319 319 321 321 321 321 320 316 316 319 320 321 321 321 321 320 319 317 315 313 311 311
316 324 330 324 325 323 319 323 324 323 318 317 316 316 317 316 316 316 317 317 317 316 316 316 315 317 319 318 316 316 318 317 316 315 314 315 315 317 321 327 329 329 330 329 331 332 334 335 335 334 334 334 334 334 333 333 332 329 327 325 324 325 325 325 326 325 323 322 322 321 322 323 323 321 320 319 320 321 322 322 322 321 318 317 320 321 322 321 321 321 321 321 319 316 313 310 309
318 327 328 325 327 321 317 321 322 321 318 316 316 316 317 317 316 315 316 316 317 316 316 316 315 316 317 316 315 316 319 317 315 315 315 315 315 315 316 319 321 324 327 327 328 330 332 334 335 335 334 333 333 334 334 334 333 331 329 326 324 324 325 325 326 326 323 322 321 321 321 322 322 322 321 320 320 320 322 322 322 322 319 318 320 321 322 322 321 321 321 321 320 317 313 310 309
320 327 327 327 326 317 315 318 316 318 317 316 316 316 317 317 315 315 316 315 316 317 316 316 316 315 315 315 315 315 316 316 315 315 315 315 315 315 315 316 316 318 322 324 324 327 330 332 334 334 334 334 332 333 334 334 334 333 331 329 326 324 325 326 326 326 324 323 322 322 321 321 322 322 322 321 320 321 322 323 323 322 321 319 320 321 322 322 322 321 322 322 321 318 313 309 308
318 326 327 323 319 315 316 316 316 317 317 315 315 315 316 316 315 315 315 314 315 316 316 316 316 316 315 315 315 315 315 315 315 315 315 315 315 315 315 314 315 315 317 319 320 322 326 329 332 333 334 334 333 332 334 335 334 334 332 331 329 325 324 325 325 325 324 324 324 324 323 322 322 322 322 321 321 321 321 322 323 323 322 321 320 321 322 322 322 322 322 322 322 320 314 309 308
317 323 325 318 315 318 317 315 317 316 316 316 315 316 316 316 316 315 315 315 314 314 315 316 316 316 315 315 315 315 315 314 315 315 315 315 315 315 315 315 315 315 315 317 318 318 321 326 329 330 332 333 332 331 333 335 335 335 333 332 331 328 325 324 324 323 323 324 324 325 324 324 324 323 323 322 322 322 321 321 323 323 323 322 321 321 321 321 322 322 323 322 322 320 314 309 309
317 317 319 316 316 319 316 315 317 316 317 317 316 316 316 316 316 316 315 317 317 315 316 316 316 316 316 315 315 315 315 315 315 315 315 315 315 315 315 315 315 315 316 316 316 316 317 322 327 328 329 331 332 331 332 333 334 335 334 333 332 331 328 325 323 322 323 324 325 326 326 326 326 325 324 322 322 322 322 322 322 324 323 323 322 322 321 321 322 323 323 322 321 319 313 309 309
317 315 315 316 317 318 316 315 317 316 317 316 316 316 316 316 316 317 316 317 318 317 317 316 317 317 317 316 316 315 315 315 315 315 315 315 315 315 315 315 315 315 315 315 315 315 316 318 322 325 326 327 330 330 331 332 333 334 334 334 334 333 331 329 326 323 324 326 326 327 327 327 327 326 325 324 323 323 323 322 322 323 324 323 323 323 322 322 323 323 323 322 320 316 311 309 308
318 317 315 316 316 316 316 316 316 317 317 316 316 316 316 316 316 317 316 316 317 317 317 317 317 317 317 317 316 316 316 316 316 315 315 315 315 315 315 315 315 315 315 315 314 314 315 316 318 320 322 324 327 329 331 332 332 333 334 335 334 333 333 332 330 326 326 328 328 328 328 328 328 328 326 325 325 324 323 323 323 323 323 323 323 323 323 323 323 323 323 322 319 314 310 309 308
317 317 315 315 316 315 315 315 315 316 317 316 316 316 316 316 316 316 316 317 316 317 317 316 317 317 317 317 317 317 316 316 316 315 315 315 315 315 315 315 315 315 315 315 314 315 314 315 316 317 319 320 324 327 329 331 332 333 333 334 335 334 334 334 333 330 327 328 329 328 328 329 329 328 328 326 326 325 324 323 324 323 323 324 324 323 323 323 323 323 323 322 319 312 309 308 308
316 316 315 315 315 315 315 315 315 316 316 316 316 316 316 315 316 317 316 316 317 317 316 316 317 316 317 317 316 316 316 316 315 315 316 315 315 315 315 315 315 314 315 315 314 315 314 314 314 315 315 316 319 324 328 330 332 333 333 334 334 334 334 333 334 332 330 329 329 329 329 329 329 328 328 327 327 326 325 324 325 325 324 324 324 324 323 323 323 323 323 322 317 311 308 308 308
316 316 316 316 315 315 315 315 315 316 316 316 317 317 316 315 316 318 317 317 317 316 317 316 317 316 317 316 316 316 316 316 316 316 316 315 315 315 315 315 315 315 315 315 315 315 315 314 314 314 314 315 316 319 323 328 332 333 333 334 334 333 333 333 333 333 332 330 329 329 330 330 329 329 329 328 327 327 326 326 326 326 326 325 324 324 323 323 323 323 323 321 315 310 308 308 308
316 316 316 316 315 316 316 316 315 316 317 315 316 316 315 316 317 319 317 317 318 317 317 316 316 317 317 316 317 316 317 317 316 316 316 316 316 316 316 315 315 315 315 315 315 315 315 315 315 314 314 314 315 316 318 324 330 332 332 333 334 332 332 333 333 332 332 331 330 330 330 330 330 329 329 329 328 328 327 327 327 326 326 325 325 324 323 323 323 323 323 320 313 309 308 308 308
316 317 318 316 315 317 316 315 315 316 317 316 315 317 319 319 318 318 317 317 318 318 317 317 316 317 317 317 317 316 317 317 316 317 317 317 317 316 316 316 316 316 315 315 315 315 315 315 315 315 315 314 314 315 317 321 327 331 331 332 331 331 332 332 332 333 332 331 331 331 330 330 330 330 330 329 329 328 328 327 327 327 326 325 325 325 324 324 323 323 324 321 313 309 308 307 308
317 316 318 318 316 320 318 315 316 315 316 316 315 317 324 324 318 317 318 317 317 318 317 317 317 317 317 317 317 317 317 317 317 317 317 317 317 317 316 316 316 316 316 315 315 315 315 315 315 315 315 314 314 314 316 319 324 329 330 330 329 330 331 332 332 332 332 332 331 331 330 330 330 330 330 330 329 329 328 328 327 328 327 325 325 325 325 324 324 324 324 321 313 308 308 307 307
319 316 320 322 319 322 320 314 316 317 315 316 317 318 323 324 317 316 318 317 317 318 317 317 317 317 318 318 317 318 318 317 318 317 317 317 317 317 317 317 316 316 316 315 315 315 315 315 315 315 315 314 314 314 315 317 321 324 327 328 327 328 330 331 331 332 332 332 331 331 330 331 331 331 330 330 330 329 328 328 328 328 327 325 324 324 325 325 324 324 324 322 315 310 308 307 307
319 318 323 324 320 322 321 315 315 317 316 315 317 320 322 321 317 317 318 318 318 317 318 318 318 318 317 318 318 318 318 318 318 318 318 317 317 317 317 317 316 316 316 315 315 315 315 315 315 315 315 314 314 314 314 316 318 321 322 324 325 325 327 329 332 333 333 332 331 331 330 330 331 331 331 330 329 329 329 329 328 328 327 326 324 323 325 325 324 324 323 321 318 314 309 307 307
322 320 324 324 320 321 320 317 315 316 317 315 315 318 321 320 316 317 318 318 318 318 318 318 317 318 318 318 318 318 318 318 318 318 318 318 317 318 317 317 317 317 316 316 315 315 315 315 315 315 314 314 314 314 314 315 317 319 320 322 324 325 325 326 328 330 330 329 330 331 330 330 331 331 331 330 329 329 329 329 329 328 328 326 325 324 324 325 324 324 323 319 319 317 310 306 307
323 318 320 324 322 320 320 320 315 315 316 317 316 317 320 320 315 316 317 317 318 317 317 318 317 317 317 318 318 318 318 318 318 318 318 318 319 318 318 318 317 317 316 316 316 315 315 315 315 315 314 314 314 314 313 314 316 319 321 321 322 324 325 325 325 326 326 326 326 328 328 329 331 332 330 329 329 328 328 329 329 329 328 327 325 324 324 324 324 323 323 320 317 315 310 308 309
326 321 319 322 321 319 321 321 317 316 317 316 317 317 319 319 315 314 317 317 316 317 317 317 317 317 317 318 317 318 318 318 318 318 318 318 319 319 318 318 318 317 316 316 316 316 315 315 315 315 315 315 314 314 314 314 315 318 321 321 321 322 323 325 325 325 326 325 323 322 327 331 331 333 331 330 330 328 326 327 329 329 328 327 325 325 324 323 324 323 323 321 315 310 309 310 310
326 327 325 323 319 317 319 319 315 316 317 317 318 317 317 317 316 314 315 317 315 315 316 316 317 317 317 318 317 318 318 318 318 318 318 318 318 318 318 318 318 318 317 316 316 316 316 315 315 315 315 314 314 314 314 314 314 315 317 319 319 319 320 322 323 324 325 327 323 320 328 335 333 332 332 330 329 327 325 327 330 329 327 327 325 325 325 324 324 324 323 321 316 309 306 308 309
322 326 325 322 320 318 318 318 316 314 317 320 319 318 317 316 316 314 313 316 314 313 314 315 316 317 317 317 317 318 318 318 318 318 318 318 318 318 318 318 318 318 317 317 316 316 316 316 316 315 315 314 315 314 314 314 313 314 314 314 315 315 316 316 317 319 320 324 323 320 326 334 333 332 331 329 328 327 325 325 328 329 326 327 326 325 325 324 324 324 323 320 317 313 308 306 307
322 324 321 321 324 320 317 318 317 313 316 322 321 319 318 316 316 314 313 314 314 314 314 314 316 316 317 317 317 318 318 318 318 318 318 318 318 318 318 318 318 318 318 317 317 316 316 316 316 316 315 315 315 314 314 314 313 313 313 313 314 314 314 314 314 315 315 318 319 319 325 333 334 332 331 329 328 327 325 325 327 328 327 327 326 325 324 324 323 323 324 320 316 315 311 308 307
326 323 318 322 326 321 317 319 318 316 317 323 324 320 317 316 316 313 311 313 314 314 315 315 316 316 316 317 317 317 317 317 317 318 318 318 318 318 318 318 318 318 318 318 317 317 316 316 316 316 315 315 315 314 314 314 314 313 313 313 314 314 314 314 314 314 314 315 316 318 325 332 333 332 332 330 329 328 326 325 326 325 326 327 326 325 324 324 323 322 323 322 318 315 310 308 308
328 325 321 324 326 321 319 320 318 317 318 321 322 320 318 317 316 317 313 313 315 315 316 316 316 316 317 317 317 317 317 317 318 318 318 318 318 319 319 319 319 319 318 318 318 317 317 317 316 316 316 315 315 315 314 314 313 313 314 313 314 314 314 314 314 315 314 314 315 316 322 329 332 331 331 331 330 329 327 325 325 323 324 327 326 325 324 323 324 323 322 322 321 317 312 308 306
325 329 328 328 325 320 319 320 320 321 321 320 320 321 327 327 324 326 321 314 314 315 315 317 317 317 317 317 317 317 317 317 318 318 319 319 319 319 319 319 319 319 319 318 318 318 317 317 317 316 316 316 315 315 314 314 314 314 314 313 314 314 313 313 314 314 314 314 314 313 316 324 329 331 330 330 329 329 328 326 325 324 324 326 326 325 325 324 324 323 322 321 321 320 317 311 306
320 325 327 326 325 323 325 327 325 323 323 321 318 320 332 338 330 330 329 322 321 318 314 316 319 318 317 318 318 317 318 318 318 318 319 320 320 320 320 320 320 320 319 319 318 318 317 317 317 316 316 315 315 315 315 314 314 314 314 313 313 313 313 313 313 313 313 313 313 313 313 316 323 328 328 328 328 327 328 326 325 323 322 325 327 325 325 325 324 323 322 322 321 320 319 314 310
318 320 323 326 327 326 330 330 322 322 323 320 318 319 326 329 322 322 325 324 326 321 315 316 318 319 319 318 319 319 319 319 319 319 319 320 320 320 320 320 320 319 319 318 318 317 317 316 316 316 316 315 315 315 315 315 314 314 314 313 313 312 312 312 312 312 312 312 313 312 312 312 314 319 322 324 326 326 325 324 322 320 321 325 326 326 326 325 324 323 322 322 321 320 318 316 314
321 320 324 330 328 324 328 328 321 324 325 322 323 321 322 324 321 319 318 317 320 319 317 316 315 318 319 318 319 319 320 320 320 321 320 320 319 319 320 319 319 318 318 318 318 318 317 316 316 316 316 316 315 315 315 315 314 314 314 313 313 313 312 312 312 312 311 312 312 312 312 312 313 314 315 320 324 324 322 321 320 321 324 326 325 325 326 325 324 323 322 321 321 320 319 317 316
323 322 325 331 329 327 332 330 325 326 322 323 327 320 319 327 327 322 316 316 319 319 320 317 313 316 317 318 320 319 320 321 321 321 320 319 319 319 319 318 318 318 318 318 318 318 317 316 316 316 316 316 316 316 315 315 315 314 314 313 313 313 312 312 312 312 311 311 311 312 312 312 314 313 313 316 320 322 322 323 324 325 326 326 326 325 325 324 324 323 322 321 320 319 319 318 315
321 321 325 330 330 331 332 328 328 329 321 322 328 323 317 320 325 322 315 317 322 322 322 317 313 316 318 319 320 319 321 321 321 320 319 319 319 318 319 318 318 318 318 318 318 318 318 317 317 317 317 317 316 316 315 315 315 314 314 313 313 313 312 312 312 312 311 311 311 312 312 313 313 312 314 318 322 324 325 327 327 326 327 326 326 326 325 324 324 323 322 321 320 319 319 318 316
318 324 330 330 330 334 334 331 330 326 320 323 328 325 316 316 324 326 319 321 324 321 322 320 316 317 318 320 320 320 321 320 320 319 318 319 319 318 319 318 319 319 318 318 318 318 318 318 318 318 318 317 316 316 316 315 315 315 314 313 313 313 312 312 311 312 311 311 311 311 312 313 312 314 319 323 325 326 327 327 327 326 326 326 326 325 325 324 323 323 322 321 320 319 319 318 317
321 331 332 324 327 335 333 331 328 322 321 327 328 325 317 314 322 325 322 325 324 321 324 326 320 318 320 322 322 321 321 320 319 318 319 319 318 319 319 318 319 318 318 318 318 318 318 318 318 318 318 317 317 317 316 316 316 315 315 314 313 313 312 312 311 311 311 311 311 311 312 312 312 316 322 325 325 325 326 327 326 326 325 325 325 325 324 324 323 322 322 321 320 319 319 317 317
325 327 324 316 320 327 327 327 327 324 323 324 324 322 317 315 319 321 324 327 323 318 320 321 319 319 322 322 321 321 321 320 319 319 319 319 318 319 318 319 319 318 319 318 318 318 318 318 318 317 317 317 317 317 316 316 316 316 315 314 313 312 312 312 311 311 311 311 310 311 312 312 312 316 320 323 324 325 326 327 326 325 325 324 324 324 323 323 322 322 321 321 320 319 318 317 317
323 321 321 319 320 323 323 324 324 324 325 322 319 320 321 322 323 323 324 322 319 317 316 317 318 319 320 320 320 321 320 319 319 319 319 318 318 318 318 318 318 318 318 318 318 318 317 317 317 317 318 317 317 317 316 316 316 315 315 314 313 313 312 311 311 311 311 311 310 311 312 313 313 314 317 321 324 324 325 326 326 325 324 323 323 323 323 322 321 320 320 320 319 319 319 317 317
321 322 321 320 324 326 325 324 323 324 326 323 318 320 326 326 323 322 319 315 316 317 317 318 319 319 319 319 319 320 319 319 319 319 319 318 318 318 318 318 318 318 318 317 317 317 317 318 317 318 318 317 318 317 317 317 316 315 315 314 314 313 313 312 312 311 311 311 310 310 312 313 315 316 318 321 322 321 322 323 324 325 324 323 323 323 322 321 320 320 319 318 318 318 318 317 317
318 323 321 319 323 324 322 325 327 326 324 322 321 324 327 324 321 319 317 316 316 315 317 318 317 319 319 318 319 319 319 319 319 319 319 318 318 318 318 318 318 318 317 317 317 317 317 317 317 318 318 318 317 317 317 317 316 316 315 315 314 314 313 313 313 312 312 311 310 310 311 312 315 317 318 320 320 320 321 322 323 324 323 322 322 322 321 320 321 321 319 318 317 317 317 317 317
318 320 320 322 324 322 320 321 320 320 319 319 319 321 321 318 318 318 317 318 318 314 314 317 317 319 318 318 318 317 318 318 318 319 318 318 319 318 318 318 318 318 318 317 317 317 317 317 317 317 317 317 317 317 317 316 316 316 316 315 315 314 314 314 314 313 312 311 310 310 310 312 314 316 317 319 319 320 322 323 323 324 323 322 322 321 321 320 321 322 320 318 317 317 317 316 316
320 321 319 320 322 323 325 323 320 319 318 319 318 316 316 315 317 321 319 317 319 319 317 315 315 317 318 318 317 317 317 317 317 318 318 318 319 318 319 318 318 318 318 318 318 317 318 317 317 317 317 317 317 316 316 316 316 316 316 316 315 314 314 314 313 312 312 311 310 310 310 312 315 317 318 319 319 320 321 322 322 322 322 322 322 321 321 320 321 321 319 317 317 318 317 315 315
319 321 319 320 324 324 324 323 321 319 318 321 321 315 314 314 315 319 318 317 321 323 322 320 317 314 315 317 317 317 318 317 317 317 317 318 318 318 318 318 318 318 317 318 318 318 318 317 317 317 318 317 317 316 316 316 315 315 315 315 315 314 314 313 313 312 312 311 310 310 311 312 313 315 318 319 320 321 321 321 320 319 320 321 322 322 321 320 321 320 318 316 317 317 316 315 315
317 318 317 321 327 326 324 322 320 320 318 318 318 313 313 316 318 318 316 317 319 318 320 324 318 313 315 317 317 317 317 317 318 318 318 319 318 318 318 318 318 318 317 318 317 317 318 317 318 318 318 317 317 317 316 316 316 315 315 315 315 314 314 313 313 313 312 311 310 310 311 312 312 313 317 319 321 322 321 321 320 319 319 321 321 321 320 320 320 319 318 316 317 317 316 314 315
319 320 320 321 321 321 323 322 320 322 322 319 316 313 314 319 321 319 317 318 319 317 319 320 314 313 317 317 317 317 317 318 318 319 319 319 318 319 318 318 318 317 318 318 317 317 317 317 318 317 318 317 317 317 316 316 316 316 316 316 315 315 314 313 313 313 312 312 311 310 310 311 311 313 317 319 320 321 320 320 320 320 321 320 320 320 320 320 319 318 317 316 316 317 316 314 314
319 318 320 320 319 319 319 318 319 321 324 325 320 313 316 320 319 318 320 320 317 315 316 315 314 316 317 318 317 318 318 318 318 319 319 318 318 318 318 318 318 317 318 318 317 318 317 317 317 317 317 317 317 317 317 316 316 316 317 316 316 315 314 314 313 313 312 312 311 310 310 310 310 313 316 318 319 319 319 319 320 321 321 320 320 320 320 320 318 316 316 316 316 317 316 315 313
Wind_Speed
7 6 6 6 5 3 3 2 1 2 3 3 1 3 1 1 3 4 4 4 4 4 7 8 10 12 8 9 13 12 10 2 2 2 4 13 21 16 13 15 14 15 16 15 14 12 12 13 14 14 14 14 13 13 12 12 12 11 12 12 13 13 13 12 13 13 14 15 15 14 14 15 14 14 14 14 13 13 15 19 23 22 19 18 16 14 13 15 17 18 18 19 19 21 22 22 22
6 5 5 5 5 2 3 1 1 2 4 3 1 3 2 2 5 4 4 3 4 5 8 10 11 14 14 14 11 9 11 7 4 12 16 23 23 16 14 15 15 16 16 16 15 13 13 13 14 14 14 13 12 12 11 11 11 11 12 12 11 11 11 11 12 13 13 14 14 13 13 14 14 14 13 13 13 13 16 19 22 20 19 18 15 14 14 16 18 18 19 19 19 20 21 22 23
5 4 4 5 3 3 4 1 2 2 4 3 2 1 2 5 5 4 6 8 10 11 11 10 8 10 11 10 6 5 5 5 9 20 24 25 25 19 15 14 15 16 16 16 15 14 13 13 14 14 13 13 12 12 11 10 9 10 11 10 10 10 10 10 11 12 12 13 12 12 13 13 13 13 13 13 12 13 16 20 21 19 18 17 16 14 13 16 18 18 19 18 19 20 21 22 24
5 4 4 3 3 2 2 2 2 4 3 3 1 2 3 7 6 5 8 11 10 10 9 7 5 8 11 10 7 8 7 5 9 19 25 26 24 22 17 15 16 16 16 16 15 14 13 13 13 14 13 12 12 11 11 9 9 9 9 9 8 8 9 10 10 11 11 11 11 11 12 12 13 13 13 13 12 13 16 18 19 18 17 16 15 13 12 16 18 18 18 18 18 19 20 22 23
5 5 3 3 3 1 1 2 2 5 2 4 3 1 5 7 7 6 8 9 8 8 8 5 3 6 12 9 6 7 8 9 11 17 25 25 22 22 18 15 16 15 15 15 15 14 13 13 13 13 13 12 12 11 10 9 9 9 8 8 8 8 8 9 9 10 10 10 10 11 12 12 13 13 13 13 12 13 15 17 17 17 16 15 14 12 14 16 18 18 18 18 18 20 20 22 22
6 6 3 4 3 1 1 3 3 5 0 4 5 4 6 7 9 10 10 9 8 9 8 7 5 6 9 8 8 11 10 8 13 19 24 23 22 22 20 16 15 14 15 14 14 13 13 13 13 12 12 11 11 10 10 9 9 8 7 7 7 8 7 7 8 9 9 9 10 10 11 12 13 13 13 12 11 12 13 15 16 16 16 15 13 12 15 17 17 18 18 19 19 20 21 22 21
5 3 1 3 2 1 3 3 3 3 2 3 8 6 6 10 14 14 9 7 6 6 7 7 8 8 6 7 9 10 8 5 10 17 18 21 25 23 21 18 15 14 14 14 13 12 13 12 12 11 11 11 11 10 10 10 9 8 7 7 7 7 6 5 7 8 9 9 9 10 10 11 12 13 13 12 11 11 12 13 14 15 14 14 13 14 16 17 18 18 19 20 21 21 21 20 19
4 1 1 1 2 2 3 3 2 3 2 3 8 10 11 15 17 13 6 5 4 4 7 6 8 7 4 7 6 8 10 6 7 12 15 19 25 24 22 20 16 16 15 14 13 12 13 12 12 11 10 10 10 10 9 9 9 9 8 7 7 5 5 5 6 7 8 9 9 9 10 11 12 12 12 12 12 12 11 12 12 12 13 14 15 16 18 18 18 20 20 20 21 21 21 20 19
3 2 1 2 1 3 2 2 2 2 1 3 7 12 18 18 16 12 5 6 7 6 6 5 5 6 6 8 8 10 11 8 8 11 13 16 22 23 21 19 17 18 16 14 13 12 13 12 12 11 11 10 10 10 8 8 8 9 8 8 7 6 5 5 5 6 8 8 9 9 9 10 11 12 12 12 12 12 12 11 12 12 13 15 16 17 18 19 20 20 20 20 21 21 20 20 19
3 2 1 2 2 3 2 1 1 2 2 4 7 14 19 18 16 13 10 7 10 9 6 5 5 8 9 9 9 10 9 9 9 12 13 14 21 24 22 19 16 16 17 15 13 13 13 13 13 12 12 11 10 9 8 8 8 9 9 9 8 7 6 5 5 5 7 8 9 9 9 9 10 11 11 12 12 12 13 12 12 12 13 14 16 17 18 20 20 20 20 19 20 20 20 19 19
1 1 0 4 3 2 2 2 3 3 3 3 5 13 16 16 14 11 12 10 11 11 7 5 5 12 12 7 8 8 9 10 10 13 15 17 22 23 20 18 15 14 15 15 13 12 12 13 13 13 13 11 10 10 9 9 9 10 10 10 9 8 7 5 4 4 6 8 9 9 9 9 9 9 10 11 12 12 13 13 13 13 13 14 15 17 19 20 19 19 19 19 19 19 18 18 17
1 1 3 4 0 0 3 4 5 4 4 3 2 8 11 12 9 8 12 10 11 10 7 6 4 10 9 4 8 8 10 12 11 13 15 20 23 22 19 18 15 14 14 14 13 13 12 12 12 13 13 11 10 10 9 9 10 10 11 11 10 9 8 6 5 4 4 6 8 8 8 8 8 8 9 10 11 11 12 13 13 13 14 14 16 18 19 19 18 18 18 18 18 17 17 16 15
1 1 5 2 3 3 4 5 5 4 3 3 4 8 9 10 7 8 13 12 11 9 6 6 4 6 5 4 9 9 11 13 13 14 15 20 23 21 20 18 16 16 15 14 14 13 12 12 13 13 13 12 11 10 9 9 10 10 11 12 11 10 10 8 6 5 4 5 7 7 8 7 7 6 7 9 10 11 11 12 12 13 13 15 17 18 18 17 17 17 17 17 16 15 14 14 13
1 2 4 1 1 2 5 4 3 4 1 4 7 11 11 9 5 7 12 9 7 9 8 7 5 4 5 6 8 12 14 14 15 15 16 19 23 23 21 20 18 18 16 15 14 13 13 13 14 14 13 13 12 11 10 10 10 11 11 11 11 11 11 9 7 6 4 5 7 7 8 7 6 6 6 7 9 10 10 11 12 12 13 15 17 18 17 16 16 16 16 15 14 12 12 11 11
1 3 3 1 3 1 2 3 3 5 1 3 8 14 11 7 5 7 11 7 5 12 11 7 6 4 5 6 7 14 14 14 17 17 18 19 23 24 23 22 20 20 18 17 16 15 15 14 15 15 14 14 13 12 11 11 11 11 11 12 12 11 11 10 8 7 5 5 6 7 7 7 6 5 5 6 8 9 10 10 11 12 13 14 16 16 15 15 15 15 14 13 12 11 10 10 10
2 2 4 2 2 1 1 2 5 5 1 4 10 13 9 5 6 8 8 9 10 13 9 6 6 3 5 7 5 9 12 15 18 18 18 19 22 24 24 23 21 21 20 19 18 17 16 15 16 16 15 14 14 13 13 12 12 12 12 13 13 12 11 11 9 8 7 6 6 6 6 6 5 5 5 5 7 9 9 9 10 11 12 13 14 14 13 13 13 13 12 12 11 9 9 9 9
1 2 4 1 1 1 1 1 3 4 4 5 11 11 7 3 5 9 8 10 13 11 7 6 7 5 6 5 6 8 10 15 18 18 18 18 21 22 24 24 22 22 21 20 18 18 18 16 17 17 16 15 15 14 14 14 13 13 12 13 14 13 12 11 10 9 8 7 6 5 5 6 5 5 5 5 7 8 9 9 10 10 11 13 13 12 12 11 11 11 10 10 9 9 8 8 8
2 2 3 1 1 0 3 3 4 6 5 6 12 12 9 6 6 10 9 8 11 9 7 7 7 8 7 6 7 8 10 14 16 17 18 19 20 21 22 24 23 23 23 21 19 19 19 18 18 18 17 16 16 15 15 15 14 14 14 13 14 14 13 12 11 11 9 7 6 6 5 6 6 5 5 5 6 8 9 9 9 10 11 12 12 12 11 10 10 9 8 8 8 8 8 7 7
2 3 3 2 3 1 4 0 4 6 8 10 14 13 7 8 12 11 6 6 10 8 6 8 7 8 9 9 9 8 10 13 15 16 17 17 18 19 20 22 23 23 23 22 20 20 20 19 19 19 18 18 18 17 16 17 16 16 15 15 15 15 15 14 13 12 11 8 7 7 7 7 6 6 6 6 6 7 9 9 9 10 11 11 12 11 10 9 9 8 7 7 7 7 7 7 7
2 3 3 3 5 2 7 6 5 6 15 13 11 10 5 9 14 11 6 6 8 7 8 10 11 12 12 12 12 11 12 12 13 14 15 16 16 17 17 19 20 21 21 22 21 21 21 21 20 20 20 19 19 18 18 19 18 17 17 17 16 16 16 15 15 13 12 10 9 9 8 8 8 8 7 6 6 7 8 9 9 10 11 11 11 10 9 8 8 7 7 6 6 6 6 7 8
1 3 4 4 4 2 4 6 8 8 18 15 11 8 7 10 12 10 8 5 4 11 15 13 13 15 15 16 15 14 14 13 14 14 14 15 15 15 16 16 16 17 19 21 22 21 21 22 22 22 21 21 20 20 20 20 19 19 18 18 18 17 17 16 16 15 13 12 12 10 8 8 10 9 7 6 6 7 7 8 9 10 11 11 11 10 9 8 7 7 7 7 6 6 6 7 9
2 2 3 1 3 3 2 2 8 9 15 14 10 6 7 11 10 10 9 6 4 10 17 17 13 13 14 16 17 17 16 15 15 15 15 14 14 14 15 16 16 17 20 21 21 21 21 22 24 24 23 23 22 21 20 21 20 20 19 19 19 19 18 17 17 16 15 14 14 11 9 9 11 10 8 7 6 7 7 8 9 10 11 11 11 10 8 8 7 7 7 7 7 7 7 8 10
2 1 4 6 3 5 2 3 6 7 11 11 7 4 7 9 7 8 10 9 5 3 8 13 12 11 14 15 16 19 18 17 17 15 15 14 14 15 15 16 17 18 19 20 20 20 21 22 24 25 26 25 24 23 22 22 21 20 19 19 19 19 18 18 17 17 16 16 16 13 11 11 10 9 9 8 7 7 7 8 9 10 11 11 11 9 8 8 8 7 7 7 8 9 8 9 11
4 1 2 6 5 6 4 5 6 6 8 7 5 5 5 5 4 6 10 13 10 6 5 7 7 8 13 15 16 16 15 15 15 14 14 14 14 14 15 15 16 17 19 20 20 20 20 21 23 25 27 26 26 26 25 24 23 22 20 19 19 19 19 18 18 18 18 18 16 14 13 12 11 9 9 9 8 8 8 9 10 11 11 12 12 10 9 9 8 8 8 8 9 10 10 11 13
3 2 3 6 5 5 4 6 6 4 5 4 3 3 2 2 2 5 11 14 13 13 12 12 9 6 12 15 14 14 14 14 13 13 15 15 14 15 17 17 17 19 20 20 20 20 20 20 22 24 26 27 27 28 27 26 25 24 22 21 21 20 19 18 18 18 19 19 18 16 15 14 13 11 10 10 10 9 9 10 11 11 11 12 13 11 11 10 9 8 9 10 10 11 12 13 14
1 6 7 8 6 6 6 6 6 4 3 3 2 2 2 1 1 6 13 14 14 16 14 13 12 10 11 13 14 14 14 14 14 15 15 15 16 18 19 19 20 21 21 20 21 21 20 21 22 22 23 24 27 28 29 28 27 26 25 24 22 21 20 19 19 19 20 20 20 18 17 17 16 13 12 11 11 10 10 11 11 11 11 12 13 13 12 11 9 9 9 11 11 12 13 14 15
4 10 10 9 8 7 6 5 6 5 2 2 2 2 3 1 1 6 11 8 10 16 17 15 14 14 14 14 15 16 16 16 16 16 16 17 18 20 20 21 22 21 22 22 22 21 21 22 22 22 22 22 24 26 28 29 29 29 28 26 25 23 22 21 21 20 20 21 21 20 19 19 18 16 14 13 13 12 11 11 10 11 11 12 14 14 13 12 11 9 10 12 12 13 14 15 16
8 12 8 6 7 5 5 5 6 5 2 2 2 2 4 1 2 10 13 8 7 12 18 18 17 16 16 16 17 17 19 18 18 19 19 20 21 21 21 22 22 22 23 23 22 22 22 22 22 22 22 22 23 23 24 28 30 30 29 28 27 26 24 23 22 21 21 21 22 22 21 21 20 19 17 16 15 14 12 11 12 12 12 12 13 14 13 13 12 10 11 13 13 14 15 17 17
7 9 5 1 2 1 6 6 7 6 2 4 3 4 6 2 7 14 13 9 9 9 15 19 18 18 17 17 17 17 18 18 19 21 21 21 20 20 21 22 22 23 23 23 23 23 23 22 22 22 22 22 22 23 23 26 29 30 30 29 29 28 26 24 23 23 22 22 23 23 23 22 22 21 19 18 18 16 13 13 14 14 12 12 13 14 15 14 14 12 13 14 15 16 16 18 18
4 3 4 2 4 3 8 6 7 5 3 6 4 2 6 6 13 18 14 10 11 11 14 18 18 18 18 17 17 18 18 19 21 22 21 20 20 20 21 21 22 24 24 24 25 25 24 23 23 23 24 23 23 23 23 25 28 30 30 29 29 29 28 27 26 25 24 24 24 24 23 23 23 23 21 20 20 18 16 15 15 15 13 12 13 14 16 16 15 14 14 16 17 17 17 18 18
2 1 3 3 2 4 6 4 7 5 3 6 5 1 7 8 14 15 11 11 11 14 16 17 18 18 18 18 19 20 20 20 21 21 21 21 20 20 20 21 22 24 25 26 27 26 25 24 24 24 24 24 24 24 25 25 27 29 29 28 28 29 30 30 28 26 25 25 25 24 24 24 25 24 23 22 21 20 19 17 16 15 14 13 14 15 16 17 17 16 15 17 18 18 18 19 19
3 2 3 2 3 3 7 2 8 5 3 5 5 1 6 9 11 7 4 9 11 14 15 16 18 18 19 20 20 22 21 20 20 21 22 22 21 20 20 20 21 24 25 27 27 28 27 26 25 25 25 25 26 25 25 26 27 28 28 28 28 28 30 30 30 29 28 28 27 26 26 25 26 26 25 23 22 22 21 20 17 16 15 15 16 16 17 18 18 17 16 17 19 18 20 21 20
3 3 2 3 3 2 4 2 4 4 3 3 3 2 4 5 5 1 5 8 10 12 13 14 17 18 18 19 20 22 22 22 22 22 21 22 22 20 18 18 19 21 23 25 27 28 28 28 28 26 26 26 26 27 27 27 28 29 29 29 29 29 29 31 32 32 31 31 31 30 28 27 27 28 27 25 24 23 22 22 20 18 17 17 17 16 18 19 19 19 19 20 19 17 20 22 21
3 1 2 4 3 4 2 3 3 4 5 2 3 3 6 7 9 10 8 9 11 14 15 17 18 20 20 20 22 24 24 25 26 25 23 21 20 18 17 16 17 18 20 23 25 27 27 28 28 27 26 26 27 27 27 28 29 30 31 31 31 31 31 31 32 32 31 32 33 33 31 30 31 31 29 27 26 24 23 22 22 22 20 20 20 18 18 20 20 20 21 22 20 18 20 21 20
3 3 2 3 1 3 4 3 4 5 4 2 2 4 9 11 14 20 21 18 16 18 21 23 24 25 25 25 26 26 26 28 29 28 25 23 22 21 20 19 19 19 20 21 23 25 27 28 28 28 27 27 27 27 28 29 29 31 32 33 33 33 34 34 33 33 32 30 31 32 32 34 36 33 30 29 28 27 24 24 26 24 22 23 23 21 21 22 23 23 23 23 23 22 22 21 20
6 6 5 3 1 2 3 3 3 4 3 4 5 6 9 10 11 17 24 24 21 22 24 26 28 28 29 29 29 28 28 30 29 27 26 25 25 24 24 22 22 22 22 23 23 25 26 27 29 29 28 28 28 28 29 30 31 32 33 34 35 36 36 36 36 35 34 32 30 29 32 35 36 32 31 30 29 28 25 25 28 25 23 26 27 26 25 25 26 26 25 24 25 26 25 23 22
7 5 4 3 2 3 4 2 2 2 2 5 7 7 9 10 9 14 24 25 20 21 22 25 29 29 30 29 29 28 29 31 29 26 26 25 25 24 24 24 23 24 25 26 26 27 26 26 28 28 28 28 29 30 30 31 32 34 35 35 36 36 36 37 37 37 36 34 32 31 33 35 35 33 31 30 30 29 27 27 30 28 26 29 30 27 26 27 27 27 27 26 25 26 27 27 25
6 5 4 3 0 2 4 2 3 2 1 5 4 5 11 10 9 14 20 17 18 23 23 25 29 28 29 29 30 30 30 31 29 27 26 25 25 24 24 25 25 25 25 26 28 28 28 28 27 27 27 29 29 30 30 31 33 34 35 35 35 35 35 36 37 37 36 35 33 34 34 34 37 37 33 33 32 30 29 29 31 32 29 30 32 29 26 29 30 30 30 29 28 27 27 28 28
5 4 4 2 2 2 3 3 3 2 1 4 4 5 12 12 9 13 19 17 22 29 26 26 28 27 30 32 32 33 32 32 30 28 27 25 26 25 25 25 25 26 25 25 27 28 29 29 29 28 28 29 29 29 31 32 33 34 35 35 34 34 33 35 37 37 36 35 33 34 36 36 36 36 34 34 34 34 33 32 33 34 31 33 36 32 28 31 33 33 32 31 30 29 28 28 29
4 4 5 1 3 1 2 4 4 2 1 3 5 5 10 12 8 10 19 23 28 32 30 29 30 30 33 34 32 32 31 31 29 26 24 23 24 24 24 25 24 24 24 25 26 27 28 29 30 30 30 29 29 30 31 32 33 34 35 35 35 34 33 34 36 38 38 38 35 35 38 40 37 37 37 37 37 38 38 36 36 35 34 36 37 33 29 32 36 36 34 33 32 30 31 31 31
1 3 6 3 3 3 3 2 3 3 4 3 4 6 7 7 6 7 10 12 18 26 26 28 31 31 33 33 31 30 29 29 27 25 22 21 22 22 22 23 23 23 23 23 23 24 25 26 28 29 29 30 31 31 31 32 34 35 36 36 36 36 35 35 37 39 40 40 39 36 39 43 44 41 40 41 41 40 40 39 38 36 36 37 35 32 31 32 36 37 35 35 33 30 29 32 33
3 2 5 6 5 4 2 3 4 5 5 3 3 4 6 5 6 7 6 3 8 13 14 22 27 25 26 27 26 25 24 24 23 23 22 20 19 20 21 21 22 22 21 21 21 22 23 24 25 26 28 30 31 31 32 32 33 35 36 37 38 38 37 37 37 38 40 41 40 37 37 41 46 47 44 43 43 42 42 42 41 39 37 38 38 34 32 35 36 35 34 34 34 31 29 31 34
1 4 4 6 6 6 5 5 4 1 3 4 2 2 6 7 6 10 9 7 8 8 8 18 24 21 21 22 21 20 18 17 18 18 18 18 18 19 20 19 19 19 18 19 20 21 22 23 23 24 25 27 28 30 31 33 34 34 35 36 37 38 37 36 35 35 38 39 38 36 36 36 40 45 46 44 44 44 44 41 39 38 36 40 43 37 34 36 36 33 33 34 34 33 31 33 33
3 5 2 5 7 6 4 6 3 3 3 5 1 3 4 6 7 11 12 10 10 9 10 15 21 23 22 22 19 18 16 13 13 14 14 14 15 16 16 15 14 14 14 16 17 18 19 20 21 21 22 24 25 27 29 31 32 33 34 35 36 36 36 35 34 33 34 36 37 35 35 35 35 38 41 43 45 44 41 37 35 35 36 40 42 38 35 36 35 33 34 34 35 33 33 35 34
5 5 4 6 7 6 5 6 2 1 2 5 4 2 3 6 7 6 5 7 9 11 12 13 18 22 21 20 18 15 13 12 11 10 10 9 9 9 9 9 9 9 10 12 13 14 16 17 18 19 20 21 23 25 26 27 29 31 32 34 35 35 35 33 33 32 32 33 35 35 34 34 34 35 36 39 41 38 35 34 35 36 37 39 40 37 35 35 34 33 34 34 35 33 33 36 35
4 3 6 6 5 5 5 5 2 3 2 5 5 5 2 6 6 2 2 3 8 10 10 10 15 20 18 16 14 12 10 10 9 9 7 6 5 5 5 6 6 7 7 8 9 11 12 14 15 17 18 19 21 23 24 25 26 28 30 32 33 34 33 33 33 32 32 32 34 34 34 34 35 34 33 34 35 33 33 34 36 38 39 39 37 36 34 34 34 34 33 33 33 33 34 37 37
7 5 7 7 6 5 4 3 4 3 4 6 8 9 4 4 5 4 4 4 8 8 5 7 12 15 13 11 9 9 9 8 8 8 7 6 5 5 5 4 5 5 6 7 7 8 10 11 13 15 16 18 20 21 22 23 24 26 27 29 31 32 32 33 34 33 33 33 34 34 34 34 34 33 32 33 33 33 33 34 35 36 37 36 36 37 37 36 35 34 34 34 34 33 34 37 38
7 5 5 4 4 5 5 5 4 1 5 7 7 6 4 5 6 3 5 6 5 7 5 6 8 5 7 10 9 7 7 7 8 8 7 7 6 6 5 5 6 7 7 8 8 8 9 11 12 14 16 17 19 20 21 22 23 24 26 27 29 30 31 32 34 34 34 34 34 34 34 35 34 34 35 36 36 35 34 35 35 35 34 33 33 35 36 35 34 34 35 37 37 34 35 39 39
5 5 6 4 2 3 3 3 0 3 6 6 4 1 3 7 6 5 7 8 6 7 7 6 5 6 8 8 7 7 7 7 8 8 7 7 7 7 7 7 8 9 10 10 10 10 11 12 14 15 16 17 18 20 21 22 22 23 25 27 28 28 30 32 33 34 34 34 34 34 36 37 37 37 39 40 39 37 35 35 36 35 34 32 31 32 34 34 34 35 36 38 39 37 37 40 39
5 5 6 4 3 1 3 3 1 4 5 5 2 1 3 5 4 7 9 9 8 7 7 6 3 4 6 7 8 8 8 9 9 8 7 6 7 8 8 9 10 11 12 13 13 13 14 14 15 15 16 17 18 19 21 22 23 23 24 26 26 27 28 30 32 34 35 34 34 35 37 38 39 39 40 41 40 38 36 36 37 37 36 34 33 34 35 34 34 35 36 38 41 40 38 39 37
5 5 6 6 5 5 5 4 3 5 4 4 3 1 3 2 3 7 7 8 9 9 11 12 12 13 10 9 10 10 12 12 10 10 8 7 8 9 9 10 10 12 13 14 15 15 15 15 15 15 16 17 17 19 20 21 22 22 23 25 25 26 26 28 31 33 35 35 35 36 37 38 39 40 41 40 39 37 36 37 39 40 39 37 36 37 37 37 36 36 37 37 40 41 39 38 36
3 3 5 4 6 6 3 3 6 4 2 3 2 4 5 4 6 8 6 9 10 10 10 11 16 18 14 13 14 14 14 13 12 12 9 9 10 10 9 9 10 11 12 14 15 15 15 15 14 15 15 16 18 18 18 18 19 21 22 23 25 25 26 28 30 32 34 35 35 36 36 37 39 40 40 39 37 35 36 38 41 41 38 35 37 38 39 39 39 39 38 36 38 40 40 39 38
2 3 4 5 5 7 3 3 0 3 2 4 2 5 6 3 7 9 8 11 11 9 9 10 17 19 16 18 20 18 16 14 14 13 10 10 10 8 8 8 9 10 11 12 13 14 15 15 14 14 15 16 17 17 18 17 17 18 20 22 24 25 26 28 29 31 34 35 36 36 35 35 36 37 37 36 35 35 36 38 39 38 35 34 36 39 40 40 40 41 39 35 35 39 42 42 40
5 4 6 3 2 3 3 1 2 2 4 5 2 7 7 2 5 5 1 7 9 7 8 12 17 18 18 21 22 20 19 16 15 13 11 11 8 6 6 7 8 10 11 12 12 13 14 15 15 14 15 16 16 18 18 18 17 16 18 20 22 24 25 27 29 31 33 35 36 36 35 34 33 34 34 34 35 35 36 37 36 36 36 38 39 41 43 43 42 42 39 34 34 39 44 44 41
5 4 4 4 2 1 2 2 2 1 3 5 4 5 5 6 7 3 2 6 8 9 9 9 13 18 21 22 20 18 15 14 14 14 12 9 5 5 7 9 10 11 13 14 14 15 16 17 16 15 16 16 17 19 19 18 18 17 17 19 21 22 24 26 29 31 33 35 36 37 36 34 33 33 34 35 36 36 37 37 37 39 41 44 46 46 45 44 43 42 39 34 35 40 44 44 42
1 2 2 2 3 4 3 3 4 4 4 5 4 3 4 6 7 6 8 11 10 11 10 8 13 20 21 20 17 12 8 9 12 13 10 6 2 5 7 10 11 12 15 18 19 20 20 20 19 18 18 18 19 19 18 18 17 16 17 19 20 21 22 25 27 30 33 35 36 37 37 35 33 33 34 35 37 37 37 36 38 41 43 47 49 48 45 43 42 40 39 35 36 41 44 44 43
3 3 4 2 1 2 2 2 3 4 4 3 4 6 8 5 5 8 11 12 11 12 10 9 14 20 19 17 14 10 4 7 12 13 9 4 2 5 5 8 10 10 14 18 22 25 24 24 24 23 22 21 20 20 19 18 16 16 17 18 20 21 21 23 25 28 33 35 36 37 36 34 33 34 36 37 39 39 38 38 39 42 43 44 46 45 43 43 41 40 39 37 37 41 45 45 44
7 7 8 8 6 4 3 4 2 2 3 5 3 8 10 4 5 7 9 9 10 11 10 10 15 20 17 12 10 8 5 8 15 16 10 4 4 6 7 9 9 8 11 16 21 26 27 27 27 28 27 25 22 21 21 20 18 17 17 18 20 22 22 22 23 26 31 34 36 37 36 35 35 37 39 40 41 40 40 40 39 40 41 41 42 42 43 44 42 40 40 38 39 43 45 46 47
Wind_Direction
217 227 233 238 240 250 312 325 350 340 74 82 96 96 239 182 111 94 73 66 69 51 85 99 76 72 92 109 115 94 57 48 178 136 142 147 152 161 160 162 166 152 146 144 141 138 137 134 127 126 124 120 116 114 112 111 111 109 106 103 99 96 93 83 79 80 78 76 72 68 66 67 69 71 72 71 72 76 81 91 96 96 98 97 94 93 95 97 95 95 95 94 95 96 96 95 94
225 228 231 240 245 287 343 351 85 5 58 58 347 121 168 38 57 93 107 91 118 134 107 100 82 80 108 116 107 78 46 32 118 128 128 141 151 160 160 166 167 155 151 146 147 146 143 140 134 130 128 124 122 121 116 115 113 111 110 107 102 98 93 82 80 83 80 78 75 73 70 68 68 70 71 70 71 77 84 92 95 95 96 94 91 90 95 100 99 98 97 97 99 99 98 100 98
228 224 217 240 270 317 319 337 93 68 75 88 286 276 86 79 98 128 118 114 123 123 107 100 81 70 96 103 62 69 87 62 116 128 133 149 155 157 161 168 164 157 154 149 150 152 150 147 142 136 134 132 129 125 119 116 111 110 112 109 103 98 90 78 77 80 79 78 78 76 73 70 69 70 69 69 71 79 89 93 94 97 96 94 92 91 96 100 102 101 100 101 102 101 101 103 100
224 215 212 271 353 0 349 50 123 109 104 143 198 297 96 118 139 126 113 118 122 115 103 97 72 61 78 100 91 88 114 118 136 138 144 157 159 155 159 167 164 158 155 152 152 154 155 153 149 144 141 139 134 128 123 119 116 116 115 113 106 98 88 74 69 74 76 77 79 78 76 72 70 71 69 70 71 78 93 98 97 100 101 99 97 98 102 102 103 103 103 103 103 103 103 104 102
213 207 217 292 347 19 84 58 99 92 133 182 133 155 139 136 139 122 109 111 114 104 105 100 86 88 81 95 107 100 124 134 145 147 149 158 162 154 155 167 166 161 156 153 154 156 158 157 156 150 145 143 139 134 130 128 126 124 120 120 114 104 90 74 67 71 76 78 80 79 76 72 69 70 69 70 72 80 96 105 105 106 106 104 102 106 107 105 105 105 104 104 103 103 104 106 104
205 208 234 283 308 308 70 65 74 69 216 168 123 160 157 139 132 120 104 100 102 100 105 97 107 117 83 81 103 122 141 141 149 154 150 156 165 155 155 168 165 164 157 153 157 158 160 160 159 153 149 147 144 141 137 138 135 130 126 127 125 111 92 76 72 72 76 80 81 79 75 70 67 68 68 71 75 84 98 111 118 119 118 116 116 117 112 109 109 108 107 105 103 103 105 108 108
206 212 243 300 311 357 83 108 124 87 8 117 130 159 156 136 131 124 113 101 97 106 104 93 114 111 87 112 112 127 157 168 159 162 155 155 165 161 160 165 164 166 157 156 161 160 165 164 164 159 154 152 148 147 140 140 141 138 133 132 130 114 99 88 81 77 80 84 83 80 76 70 68 68 68 73 79 87 95 109 123 128 131 131 130 126 117 114 112 111 109 105 102 101 104 106 106
201 302 21 47 27 32 86 109 152 139 27 64 127 143 143 139 136 134 140 131 133 140 109 100 115 99 107 142 119 131 154 171 178 175 163 157 167 168 161 162 166 166 160 161 163 165 170 169 171 168 164 161 154 150 144 143 144 143 139 138 135 124 124 111 92 85 86 89 89 84 80 74 72 71 71 74 79 87 94 101 115 126 130 128 127 125 120 117 113 112 109 104 100 99 100 100 100
199 315 343 84 54 19 60 70 66 132 77 79 116 137 139 141 144 141 146 137 145 148 121 121 109 114 143 122 117 148 159 174 187 179 167 160 168 171 160 161 171 167 163 165 166 170 172 175 178 177 175 170 161 155 153 152 150 148 145 147 146 145 147 124 100 94 96 96 96 92 86 80 76 75 74 77 81 86 92 95 103 114 120 121 125 123 119 116 114 113 108 104 101 99 99 99 99
201 279 302 71 49 31 49 346 74 115 131 120 124 142 143 147 152 144 136 129 141 137 126 136 106 134 142 113 124 159 172 172 173 170 164 162 167 170 162 163 175 169 167 170 171 174 175 179 181 181 181 177 171 164 162 162 160 157 152 153 155 160 161 139 115 108 106 104 103 100 95 87 80 79 77 80 83 86 90 93 97 103 111 119 124 122 118 117 115 113 108 104 102 102 102 103 104
199 256 292 63 38 39 144 165 120 126 149 119 116 142 147 153 152 139 132 124 137 136 140 153 122 133 128 120 142 154 167 163 166 162 155 162 167 167 164 166 176 175 174 175 174 177 179 183 183 183 182 182 179 172 172 170 168 166 159 158 160 166 170 155 135 127 117 112 112 108 104 97 86 82 81 83 86 89 91 94 98 102 108 117 121 120 119 118 116 113 108 105 104 105 106 107 110
318 309 77 82 114 163 154 145 145 140 124 110 113 144 145 150 143 131 133 128 139 139 150 157 146 141 115 120 151 147 164 159 163 164 156 161 166 166 168 171 176 181 181 178 179 182 184 187 187 186 183 184 184 181 181 176 175 172 166 166 166 171 176 169 160 158 137 125 123 118 117 111 96 85 85 89 91 93 94 95 99 103 110 116 118 120 120 118 115 111 107 106 106 108 108 110 116
304 10 77 116 211 140 131 139 155 126 112 179 172 152 145 146 141 143 141 134 141 138 149 154 161 152 104 115 148 159 175 167 162 164 160 160 166 167 170 176 180 186 186 184 186 185 188 193 192 191 187 184 186 188 187 182 180 177 172 171 170 174 179 178 177 178 161 145 136 130 131 127 114 97 92 96 97 99 100 99 101 105 111 117 120 122 120 116 112 108 105 106 107 108 108 112 119
296 17 91 174 286 120 136 128 143 118 189 239 163 151 150 148 144 150 142 126 132 142 148 153 151 135 113 125 158 185 184 169 161 163 164 162 167 170 173 182 186 188 190 190 190 190 191 194 195 195 193 189 191 193 192 188 185 183 178 174 174 177 182 184 183 183 177 162 148 140 141 139 130 114 103 103 105 105 105 105 106 109 115 121 125 124 121 116 112 108 104 104 106 105 105 109 117
225 0 94 117 350 351 154 134 143 126 170 234 155 154 148 141 136 132 138 130 123 146 152 155 149 129 162 179 192 196 186 166 164 169 171 168 171 176 180 186 191 192 193 194 193 194 192 193 197 199 200 198 197 197 196 195 191 189 182 178 180 181 184 187 189 186 183 176 160 150 148 147 140 128 117 111 111 112 111 111 110 113 119 126 129 127 123 119 115 111 106 104 104 101 100 105 112
217 353 72 62 338 292 248 136 121 110 192 191 159 157 139 131 134 112 123 145 140 144 154 163 164 130 167 193 183 178 179 170 172 176 178 175 177 183 186 188 196 198 197 197 196 198 195 195 199 200 203 204 204 200 198 200 199 197 189 183 185 185 187 189 192 191 190 195 188 170 159 157 151 141 134 124 119 120 120 119 118 119 125 132 134 132 127 122 119 115 108 104 101 96 95 101 108
192 34 68 29 280 187 263 205 139 146 193 182 167 166 141 125 135 117 114 139 143 145 149 148 163 149 142 156 131 145 171 178 181 182 183 182 183 189 191 193 199 201 202 203 202 203 200 197 200 202 204 206 208 204 201 203 205 205 199 191 190 191 192 191 193 196 199 205 207 193 174 168 164 155 148 140 131 128 130 131 130 127 132 140 141 140 134 128 125 121 113 104 98 93 92 99 107
150 99 94 227 237 120 284 235 174 143 154 178 177 173 148 151 158 137 124 129 139 145 158 159 170 174 164 149 137 152 173 184 190 189 190 189 190 194 195 199 203 205 206 208 208 209 206 201 201 203 204 205 208 208 206 206 208 209 205 200 198 197 196 194 195 199 204 209 213 208 193 182 177 170 160 152 144 139 139 141 142 139 141 149 151 150 145 139 134 130 123 112 102 95 94 101 109
157 97 102 215 199 70 347 27 137 128 156 173 179 180 165 175 172 157 155 155 151 147 163 176 181 185 186 176 165 172 179 188 195 197 201 200 201 201 200 203 206 207 209 212 212 212 212 208 207 207 204 205 207 207 207 208 210 212 209 206 205 204 202 199 199 202 205 210 214 208 200 195 193 183 172 167 158 152 150 150 153 152 151 156 161 162 157 150 145 140 133 122 111 102 101 108 115
182 86 102 239 200 112 19 47 69 136 159 163 177 184 177 178 171 165 172 164 168 178 179 187 200 202 202 196 187 186 189 193 198 203 209 211 212 212 211 210 211 212 213 215 216 216 216 214 213 213 209 207 208 205 204 208 210 212 212 209 209 208 207 205 203 205 207 211 211 209 207 195 193 190 180 178 170 165 163 161 163 164 163 165 171 174 169 160 152 150 142 131 118 110 112 117 124
168 113 160 230 179 112 13 45 54 123 156 161 166 157 148 167 170 171 164 144 211 219 203 205 213 211 208 206 203 200 201 201 202 207 212 216 218 219 221 222 223 222 218 217 219 220 220 218 217 217 216 212 210 208 206 208 210 211 211 210 212 211 211 212 208 208 209 214 214 214 215 186 178 185 184 183 181 177 175 173 172 173 176 176 181 183 176 168 163 160 149 138 128 121 122 125 133
96 106 139 108 137 112 332 63 65 110 147 150 146 129 145 162 166 173 172 163 215 231 222 222 224 219 213 208 207 209 210 210 212 214 215 219 221 223 225 225 224 221 220 220 221 223 222 221 220 220 221 218 214 213 211 210 211 212 212 210 213 213 213 215 212 211 210 215 220 219 216 195 176 177 183 184 190 192 187 186 184 184 188 189 190 187 181 174 170 165 155 146 137 133 133 135 141
110 103 78 65 127 128 156 154 87 109 132 127 124 125 149 151 161 186 203 204 185 190 209 215 221 223 219 212 207 208 211 214 217 221 223 224 225 227 227 227 227 225 226 227 227 226 223 222 222 222 225 224 220 218 215 213 213 215 215 213 214 215 214 215 215 213 211 216 225 226 224 211 190 183 186 186 198 207 203 201 197 195 198 200 197 187 184 179 170 168 160 156 151 146 143 142 145
123 176 86 83 111 115 146 166 121 114 121 119 125 141 152 147 164 199 222 221 206 205 210 221 232 214 207 210 208 209 212 215 222 228 231 233 234 237 237 235 234 235 235 234 232 230 227 224 223 224 226 227 225 223 219 216 217 218 217 214 215 217 216 216 217 215 214 218 225 231 230 223 212 202 198 198 207 214 216 214 209 207 207 206 200 187 186 186 177 173 168 166 164 157 154 150 150
105 143 138 115 106 111 145 163 151 136 122 130 151 172 181 157 175 222 236 231 218 225 241 249 253 222 198 202 204 206 211 217 222 224 229 234 234 236 238 238 236 236 238 238 237 236 233 229 226 226 227 229 228 226 223 219 219 221 219 214 214 217 217 215 216 216 217 220 224 229 231 228 226 219 212 213 215 217 221 220 218 218 215 206 198 189 187 191 188 183 176 175 174 168 164 158 155
146 144 143 129 121 127 134 148 155 160 152 158 187 253 275 161 232 258 248 241 226 225 235 240 240 231 214 211 214 217 223 227 228 229 231 231 229 231 234 236 236 236 239 240 240 240 238 235 232 231 230 230 229 227 225 221 219 220 219 216 215 217 217 216 217 217 218 221 223 227 231 230 232 231 224 224 223 222 220 220 221 213 203 197 195 193 190 192 197 192 185 181 179 175 170 164 162
133 136 135 130 138 144 143 149 150 150 151 149 168 263 282 168 146 259 247 236 225 221 225 232 233 232 231 231 234 238 241 243 243 239 234 227 227 231 232 235 238 239 238 239 240 240 240 238 236 234 232 231 230 228 226 223 219 219 220 218 218 218 217 215 216 217 217 220 223 226 230 230 233 233 227 228 229 226 221 220 215 198 188 189 192 195 195 195 198 196 191 184 180 179 173 169 169
124 128 119 127 143 152 168 163 164 165 138 156 157 303 296 75 159 252 248 236 232 219 217 227 231 232 234 238 244 247 249 251 249 242 237 235 236 237 236 239 243 243 241 242 243 241 241 240 239 237 233 233 233 230 226 223 221 221 221 219 220 222 221 218 216 218 218 217 220 224 227 230 233 234 229 230 232 228 224 217 210 202 192 189 192 196 201 201 200 199 195 184 180 183 179 174 172
124 123 103 119 83 143 207 186 181 185 147 164 122 347 301 252 222 252 265 249 236 218 213 221 228 233 237 242 246 248 250 250 246 245 247 247 248 246 244 245 246 247 247 247 245 243 243 242 242 240 237 235 235 234 229 224 222 223 223 223 225 225 223 221 218 219 221 219 219 222 227 231 233 236 234 233 234 232 228 219 212 213 205 190 190 198 206 207 203 202 197 186 181 185 184 178 174
134 121 100 98 23 317 234 197 179 175 145 168 127 332 279 264 246 261 279 256 227 213 211 216 225 234 240 245 248 251 252 249 249 252 255 255 253 250 248 247 245 246 247 246 246 245 244 242 243 243 241 239 236 236 233 227 224 225 226 227 228 227 222 221 222 221 222 222 222 224 228 232 234 236 236 236 237 235 232 226 217 220 219 202 192 199 208 209 205 205 201 189 183 185 187 181 177
128 56 61 96 98 287 270 187 164 157 171 181 121 175 259 278 275 279 273 241 218 211 212 214 223 233 241 248 252 256 256 254 257 260 258 257 255 253 251 247 243 243 243 244 246 247 246 245 244 243 243 242 239 237 236 232 229 228 229 227 227 227 223 222 223 222 222 224 225 227 229 233 234 234 236 237 239 239 236 231 223 222 227 218 201 200 208 209 206 207 203 193 184 184 187 186 182
66 87 322 337 147 258 304 190 168 163 201 194 124 173 266 277 286 303 223 213 211 216 222 222 229 236 243 251 254 256 258 258 260 261 258 256 253 251 250 248 244 243 242 243 245 245 247 247 246 243 241 241 239 238 237 235 233 233 233 231 227 226 224 222 221 220 223 225 226 229 232 232 232 233 235 237 237 240 238 234 230 227 230 225 209 202 207 210 208 205 201 195 191 185 187 189 186
5 116 226 275 157 224 305 281 193 158 153 208 188 211 272 274 275 297 163 198 211 218 232 234 239 243 244 249 252 254 256 255 255 257 257 254 252 251 249 249 247 246 245 244 244 244 246 247 247 245 242 241 240 238 237 235 234 235 236 236 233 229 226 223 222 223 226 228 226 229 232 230 230 232 235 236 235 237 238 236 236 233 232 226 214 207 207 210 210 204 198 194 196 192 189 191 187
310 63 218 239 180 169 239 287 241 147 121 218 234 222 254 264 275 274 250 239 230 227 241 248 249 250 249 251 253 253 252 252 255 258 258 255 253 250 247 249 248 247 246 246 245 245 247 248 248 248 245 243 242 240 238 236 234 233 235 237 238 236 233 229 227 227 229 231 229 227 230 232 232 232 234 236 234 235 236 236 237 236 234 225 215 214 211 210 210 207 202 194 193 196 193 192 189
204 199 205 261 251 174 204 251 221 156 125 223 225 245 256 264 278 276 272 270 255 242 247 254 255 254 255 255 254 254 252 253 258 261 262 260 259 257 253 251 250 248 244 244 246 245 246 246 246 246 246 243 241 241 239 236 234 232 233 235 239 241 241 239 236 235 235 235 232 226 230 234 230 228 230 233 231 232 235 235 234 235 235 227 215 213 212 210 211 209 208 199 191 195 198 194 193
160 172 157 157 176 254 239 251 230 151 137 236 226 238 254 260 272 272 272 273 264 254 252 252 254 255 255 256 256 255 253 256 263 265 265 264 265 265 262 258 256 252 247 243 242 243 244 245 245 243 243 242 240 239 237 235 233 233 233 234 237 240 242 243 243 243 240 239 235 226 229 231 227 225 227 229 228 229 236 234 229 231 234 229 217 212 211 211 212 210 210 207 195 192 196 197 196
125 119 103 130 138 298 277 266 296 98 127 246 234 240 257 257 262 264 267 272 269 261 254 251 252 254 255 256 257 257 256 261 267 266 264 264 265 265 264 261 257 252 248 244 241 241 244 244 245 244 242 241 240 239 237 236 235 235 236 236 238 239 242 244 244 244 242 240 236 227 227 230 229 229 226 226 226 229 238 235 230 234 237 231 220 215 213 212 213 214 212 209 202 196 194 196 198
93 107 85 11 338 269 272 254 300 29 82 264 270 279 271 258 254 263 265 268 264 256 251 252 254 255 257 258 260 261 263 266 267 265 264 261 260 260 260 258 256 254 253 250 246 243 243 243 244 245 244 242 242 243 241 241 241 240 241 241 241 242 244 248 248 247 244 242 236 227 226 227 229 229 226 226 227 232 240 236 232 237 240 233 220 213 215 214 213 217 214 206 202 203 199 198 199
83 105 100 4 274 248 306 329 333 26 109 271 314 312 281 271 254 255 255 249 254 256 252 254 256 257 259 259 261 263 265 267 266 266 265 261 258 257 257 257 257 257 256 253 250 246 244 244 244 243 243 243 243 245 244 244 243 242 243 243 243 244 247 250 251 250 247 244 238 227 224 224 225 226 227 228 230 237 241 236 235 238 240 235 219 209 213 216 216 218 215 207 201 202 203 203 204
87 103 115 240 271 206 285 311 311 298 221 283 320 316 285 283 275 257 253 246 252 259 259 260 260 259 260 262 264 265 265 267 267 266 264 259 255 253 253 254 254 254 253 252 252 250 249 249 248 246 245 244 243 243 244 244 243 242 242 242 242 244 246 247 248 248 247 245 241 231 224 222 224 227 230 232 234 240 243 240 240 240 241 235 220 212 217 219 220 217 212 209 205 202 204 204 205
335 129 140 203 249 185 199 286 317 325 344 338 341 326 291 290 294 277 270 255 252 258 260 261 258 256 259 263 264 264 265 268 269 266 262 257 252 251 252 251 250 252 254 256 256 256 255 255 254 253 250 248 246 245 244 243 242 241 240 239 240 240 242 243 244 246 245 244 242 236 227 223 224 228 232 236 236 239 242 242 243 242 242 235 223 220 225 224 221 217 210 209 210 212 212 207 204
311 238 181 185 178 151 115 23 28 18 339 320 32 350 293 303 303 277 291 306 260 259 256 254 255 253 255 259 263 265 266 268 269 267 263 259 254 250 248 247 248 252 256 260 261 260 259 257 256 255 253 251 250 249 248 246 244 243 242 240 240 241 243 245 247 248 247 245 243 241 236 229 226 227 230 235 237 238 241 244 246 245 242 235 226 223 227 226 220 215 212 213 214 217 220 214 208
269 259 214 173 133 100 77 55 53 55 268 268 92 121 270 300 293 265 268 271 268 275 265 254 254 253 253 259 266 267 266 264 262 262 260 257 252 245 244 247 251 256 260 260 259 258 256 255 254 253 253 252 252 252 251 250 248 247 246 245 245 246 248 252 253 253 251 248 245 244 242 237 230 228 228 232 235 238 241 244 246 243 240 236 227 221 225 224 218 212 213 218 218 218 220 220 216
219 259 178 127 101 99 107 85 92 215 260 305 332 155 255 288 263 252 253 259 273 277 269 261 257 257 259 263 267 266 264 257 246 248 251 249 248 247 247 250 254 256 257 255 255 256 256 255 254 254 254 253 253 253 253 253 253 252 251 249 249 249 251 253 254 254 253 248 243 241 242 241 235 230 228 228 232 236 240 240 239 237 240 237 227 223 224 219 213 212 215 218 220 221 222 222 221
241 243 118 111 107 115 111 93 104 299 5 311 292 155 245 271 258 261 252 249 266 261 252 256 259 260 261 262 263 262 256 240 227 236 245 241 239 239 238 240 242 243 245 251 256 259 259 257 255 254 255 255 255 256 257 258 257 256 255 253 253 252 253 254 254 254 252 246 241 240 240 239 236 233 230 227 229 233 235 234 234 235 236 234 229 226 223 215 211 214 218 218 218 222 223 222 223
208 175 79 67 71 75 75 89 86 26 359 262 228 173 230 271 250 227 112 222 245 249 252 255 256 258 261 262 254 241 229 217 218 232 234 225 208 198 207 216 224 230 237 249 258 260 261 259 257 257 258 258 259 260 261 261 261 260 258 256 255 255 254 253 254 253 250 244 239 238 238 236 236 234 229 224 224 227 230 231 232 234 232 230 229 225 218 214 215 217 221 222 220 222 222 222 223
132 94 59 45 29 33 41 58 73 48 292 255 208 189 203 285 262 202 171 210 219 222 248 264 261 262 256 241 220 210 209 207 219 229 221 211 199 193 207 219 225 233 240 250 257 260 263 263 262 262 262 262 262 263 264 264 265 264 263 261 259 257 255 255 254 253 250 244 238 237 236 234 234 230 222 219 219 222 226 228 229 231 231 230 228 222 215 213 215 219 222 222 223 225 223 222 222
102 80 77 61 353 10 17 0 45 101 257 262 237 200 184 246 273 258 248 263 231 196 204 236 250 244 204 193 192 197 208 216 221 222 217 215 216 220 232 240 246 252 258 261 263 264 266 266 266 266 266 268 268 268 269 269 269 268 266 265 262 260 258 257 256 255 253 248 242 239 235 232 231 224 218 219 220 220 221 223 224 224 223 222 222 221 218 217 218 221 223 222 224 226 226 224 221
80 99 101 91 329 8 356 306 340 218 245 263 265 216 211 242 257 256 265 279 252 211 205 203 181 162 170 188 212 217 219 232 231 222 221 224 232 243 249 255 261 268 273 272 269 270 269 269 269 271 274 276 275 275 275 274 273 272 270 267 265 263 261 260 259 257 255 251 245 240 235 232 228 223 220 220 220 219 219 219 217 215 215 216 218 220 220 220 221 223 225 225 225 227 228 225 222
135 137 132 138 145 144 250 255 280 264 262 279 283 193 253 280 277 240 240 250 254 266 265 250 232 224 228 238 242 239 242 248 246 238 235 239 253 261 261 264 270 275 278 276 274 273 271 272 274 278 282 282 282 281 280 278 277 274 273 270 268 266 264 263 261 259 256 251 245 240 236 233 231 228 225 222 221 221 219 218 217 216 219 221 221 219 219 221 223 225 226 227 227 228 229 226 221
181 156 135 158 167 167 205 205 213 247 277 298 295 224 207 221 275 249 243 261 279 303 285 264 267 266 262 262 257 257 258 256 255 252 250 264 277 277 272 273 277 281 282 279 277 274 272 274 278 282 284 283 281 280 280 281 281 277 274 273 271 270 269 267 263 260 256 251 245 240 236 233 231 230 228 225 224 223 220 221 222 221 222 223 221 218 218 220 223 225 227 227 228 228 229 226 221
222 134 119 191 193 155 161 194 184 182 312 298 244 230 215 204 268 271 277 281 279 285 277 260 258 257 255 261 261 260 260 263 267 265 271 289 289 286 286 288 291 292 288 284 280 277 275 274 275 278 279 277 276 274 276 280 283 282 279 276 275 273 272 270 266 261 256 250 245 242 239 235 232 230 229 229 227 222 221 224 224 220 218 220 221 219 220 221 222 225 227 227 228 228 227 223 220
185 153 175 207 173 131 140 251 226 99 257 272 207 249 279 319 283 264 248 260 273 289 286 264 254 252 253 259 262 265 268 274 278 278 289 297 294 300 305 308 316 316 309 297 288 283 280 275 271 272 271 271 273 273 274 277 280 285 285 281 279 276 274 274 270 262 255 250 246 243 241 237 233 230 229 230 229 223 222 226 224 220 218 221 225 224 222 222 222 225 227 228 229 229 227 223 219
138 188 202 168 89 98 121 219 343 45 253 271 215 239 269 288 268 283 257 256 276 290 272 259 257 253 250 254 259 264 269 277 283 287 297 296 295 310 318 326 335 341 336 321 305 294 286 277 269 268 269 270 273 274 273 273 275 283 289 287 282 279 277 275 270 262 254 249 246 244 241 236 229 228 227 229 231 227 224 225 227 227 227 227 229 228 224 221 221 223 225 229 234 231 227 224 220
146 189 186 124 126 227 118 156 204 185 241 273 257 242 250 222 227 282 324 262 265 265 253 250 253 247 243 248 255 259 266 280 287 294 298 289 288 325 341 347 349 352 350 341 328 313 300 289 277 269 270 271 271 272 273 272 272 277 286 290 286 282 278 275 270 262 255 250 246 243 241 236 228 226 227 227 228 226 225 226 231 232 232 231 229 226 224 222 221 222 223 227 233 232 227 224 219
43 85 121 109 140 174 170 166 171 171 205 254 268 260 250 224 198 188 225 241 244 244 241 233 238 239 238 242 246 248 266 296 301 302 293 265 272 346 357 356 354 357 355 348 339 328 316 303 288 275 270 270 270 272 274 275 274 276 282 287 289 286 280 276 271 264 258 253 248 244 240 236 231 227 226 225 224 225 227 230 233 232 234 236 230 222 221 222 221 223 224 225 230 230 227 223 219
165 156 181 200 112 115 170 194 152 148 171 211 264 272 263 240 178 176 205 226 228 226 228 229 233 235 237 240 240 237 262 332 328 312 285 244 291 330 341 343 345 353 354 348 339 332 325 313 299 284 273 269 271 274 275 275 274 276 281 284 287 287 282 277 273 266 261 256 251 246 240 235 231 228 225 224 225 228 231 234 235 234 236 237 229 221 222 223 222 224 224 225 229 230 227 223 219
178 179 191 191 171 143 174 241 238 127 167 178 197 268 268 231 186 198 206 222 228 217 210 218 234 236 232 231 237 243 267 339 334 310 281 274 316 304 302 312 317 330 340 336 330 327 325 321 311 295 282 274 272 274 276 274 271 273 281 283 282 282 281 278 274 268 263 258 253 248 242 236 231 227 225 226 227 231 234 234 234 234 232 228 224 224 225 224 223 225 225 225 229 230 228 225 221